FW9898 Weather Reports


Display with metric or nautical units.
time (UTC)temp
F
wind
direction
speed
MPH
gust
MPH
rain 1hr
in
rain 24hr
in
rain mn
in
humidity
%
barometer
mb
20260507003612 73 164 2.0 3.0 0.00 0.00 0.00 89 1014.5
20260507003107 73 202 2.0 3.0 0.00 0.00 0.00 89 1014.5
20260507002604 73 179 2.0 3.0 0.00 0.00 0.00 89 1014.7
20260507002059 74 200 2.0 3.0 0.00 0.00 0.00 88 1014.7
20260507001557 74 197 3.0 3.0 0.00 0.00 0.00 87 1014.5
20260507001054 74 176 2.0 3.0 0.00 0.00 0.00 87 1014.6
20260507000550 74 185 2.0 3.0 0.00 0.00 0.00 86 1014.5
20260507000046 74 124 4.0 5.0 0.00 0.00 0.00 85 1014.8
20260506235543 74 172 2.0 3.0 0.00 0.00 0.00 84 1014.8
20260506235038 74 171 1.0 1.0 0.00 0.00 0.00 84 1014.8
20260506234536 74 185 1.0 1.0 0.00 0.00 0.00 83 1014.8
20260506234033 74 173 2.0 3.0 0.00 0.00 0.00 82 1014.5
20260506233530 75 169 3.0 3.0 0.00 0.00 0.00 81 1014.5
20260506233027 75 163 0.0 1.0 0.00 0.00 0.00 80 1014.4
20260506232523 75 179 1.0 1.0 0.00 0.00 0.00 79 1014.5
20260506232019 75 179 1.0 3.0 0.00 0.00 0.00 79 1014.5
20260506231517 75 193 1.0 1.0 0.00 0.00 0.00 79 1014.9
20260506231015 75 185 2.0 3.0 0.00 0.00 0.00 79 1014.8
20260506230510 75 194 1.0 3.0 0.00 0.00 0.00 78 1015.1
20260506230008 75 136 0.0 1.0 0.00 0.00 0.00 78 1014.7
20260506225504 75 161 2.0 3.0 0.00 0.00 0.00 78 1014.8
20260506225001 76 160 3.0 3.0 0.00 0.00 0.00 77 1014.7
20260506224458 76 195 3.0 3.0 0.00 0.00 0.00 77 1014.7
20260506223954 76 178 1.0 1.0 0.00 0.00 0.00 78 1014.6
20260506223450 76 187 3.0 4.0 0.00 0.00 0.00 79 1014.4
20260506222948 76 174 2.0 3.0 0.00 0.00 0.00 78 1014.4
20260506222444 77 182 2.0 3.0 0.00 0.00 0.00 79 1014.3
20260506221941 77 196 0.0 1.0 0.00 0.00 0.00 78 1014.4
20260506221438 77 175 1.0 1.0 0.00 0.00 0.00 77 1014.3
20260506220936 77 122 1.0 1.0 0.00 0.00 0.00 76 1014.1
20260506220431 77 161 2.0 3.0 0.00 0.00 0.00 74 1014.1
20260506215928 77 206 4.0 5.0 0.00 0.00 0.00 74 1014.1
20260506215424 77 172 4.0 5.0 0.00 0.00 0.00 74 1014.4
20260506214920 77 183 3.0 4.0 0.00 0.00 0.00 74 1014.4
20260506214417 78 201 3.0 4.0 0.00 0.00 0.00 73 1014.5
20260506213915 77 153 2.0 3.0 0.00 0.00 0.00 74 1014.7
20260506213412 77 141 0.0 1.0 0.00 0.00 0.00 74 1014.7
20260506212909 77 82 3.0 4.0 0.00 0.00 0.00 74 1014.6
20260506212405 77 175 2.0 4.0 0.00 0.00 0.00 74 1014.8
20260506211900 78 183 4.0 5.0 0.00 0.00 0.00 72 1014.8
20260506211356 78 134 2.0 3.0 0.00 0.00 0.00 72 1014.7
20260506210854 78 181 0.0 1.0 0.00 0.00 0.00 72 1014.5
20260506210350 78 174 2.0 3.0 0.00 0.00 0.00 72 1014.7
20260506205848 78 179 4.0 4.0 0.00 0.00 0.00 72 1014.6
20260506205343 78 268 4.0 5.0 0.00 0.00 0.00 73 1014.7
20260506204840 79 212 3.0 4.0 0.00 0.00 0.00 72 1014.8
20260506204338 78 195 2.0 3.0 0.00 0.00 0.00 72 1015.0
20260506203835 78 159 4.0 5.0 0.00 0.00 0.00 72 1014.7
20260506203332 78 173 3.0 5.0 0.00 0.00 0.00 72 1014.8
20260506202829 79 174 5.0 5.0 0.00 0.00 0.00 72 1014.9
20260506202326 79 199 2.0 3.0 0.00 0.00 0.00 71 1015.2
20260506201822 79 178 3.0 4.0 0.00 0.00 0.00 71 1014.9
20260506201320 79 192 2.0 3.0 0.00 0.00 0.00 71 1015.1
20260506200817 80 173 5.0 7.0 0.00 0.00 0.00 70 1014.8
20260506200313 80 177 3.0 3.0 0.00 0.00 0.00 71 1015.1
20260506195809 80 179 3.0 4.0 0.00 0.00 0.00 72 1015.0
20260506195306 80 186 3.0 3.0 0.00 0.00 0.00 71 1015.2
20260506194803 81 205 3.0 4.0 0.00 0.00 0.00 71 1015.2
20260506194259 80 229 1.0 1.0 0.00 0.00 0.00 72 1015.3
20260506193758 80 168 3.0 3.0 0.00 0.00 0.00 71 1015.2
20260506193254 81 228 3.0 5.0 0.00 0.00 0.00 69 1015.4
20260506192750 81 180 2.0 3.0 0.00 0.00 0.00 70 1015.4
20260506192247 81 180 2.0 3.0 0.00 0.00 0.00 70 1015.3
20260506191744 82 172 1.0 1.0 0.00 0.00 0.00 70 1015.6
20260506191240 81 189 3.0 4.0 0.00 0.00 0.00 70 1015.3
20260506190738 81 166 3.0 3.0 0.00 0.00 0.00 71 1015.8
20260506190234 80 172 3.0 4.0 0.00 0.00 0.00 71 1015.7
20260506185731 80 171 3.0 3.0 0.00 0.00 0.00 72 1015.8
20260506185228 80 196 2.0 3.0 0.00 0.00 0.00 71 1016.2
20260506184725 81 203 2.0 3.0 0.00 0.00 0.00 71 1016.2
20260506184222 82 220 2.0 3.0 0.00 0.00 0.00 70 1016.2
20260506183719 82 226 2.0 3.0 0.00 0.00 0.00 69 1016.4
20260506183215 82 193 2.0 3.0 0.00 0.00 0.00 69 1016.3
20260506182712 82 193 2.0 3.0 0.00 0.00 0.00 68 1016.5
20260506182209 81 196 1.0 1.0 0.00 0.00 0.00 70 1016.2
20260506181707 81 204 2.0 3.0 0.00 0.00 0.00 71 1016.3
20260506181204 80 189 2.0 3.0 0.00 0.00 0.00 73 1016.4
20260506180701 80 176 3.0 4.0 0.00 0.00 0.00 74 1016.4
20260506180157 80 153 3.0 4.0 0.00 0.00 0.00 72 1016.3
20260506175654 81 186 3.0 4.0 0.00 0.00 0.00 73 1016.7
20260506175151 80 197 1.0 1.0 0.00 0.00 0.00 74 1016.8
20260506174649 80 190 3.0 4.0 0.00 0.00 0.00 74 1016.7
20260506174145 80 194 2.0 3.0 0.00 0.00 0.00 73 1016.8
20260506173643 79 178 0.0 1.0 0.00 0.00 0.00 75 1016.9
20260506173134 79 145 3.0 5.0 0.00 0.00 0.00 73 1017.0
20260506172631 79 197 2.0 3.0 0.00 0.00 0.00 73 1017.0
20260506172127 79 187 2.0 3.0 0.00 0.00 0.00 73 1017.2
20260506171625 80 184 3.0 5.0 0.00 0.00 0.00 71 1017.3
20260506171122 81 147 4.0 5.0 0.00 0.00 0.00 68 1017.1
20260506170615 80 195 0.0 1.0 0.00 0.00 0.00 70 1017.2
20260506170111 80 172 2.0 3.0 0.00 0.00 0.00 71 1017.1
20260506165610 79 158 3.0 3.0 0.00 0.00 0.00 72 1017.1
20260506165105 80 190 3.0 4.0 0.00 0.00 0.00 71 1017.0
20260506164603 80 200 1.0 1.0 0.00 0.00 0.00 71 1017.2
20260506164100 80 194 3.0 4.0 0.00 0.00 0.00 71 1016.9
20260506163555 79 171 0.0 1.0 0.00 0.00 0.00 71 1017.1
20260506163052 79 188 1.0 1.0 0.00 0.00 0.00 70 1017.2
20260506162548 79 179 1.0 1.0 0.00 0.00 0.00 70 1017.2
20260506162045 79 187 1.0 1.0 0.00 0.00 0.00 70 1017.1
20260506161542 78 149 3.0 4.0 0.00 0.00 0.00 70 1017.3
20260506161033 78 201 3.0 4.0 0.00 0.00 0.00 70 1017.5
20260506160531 77 175 1.0 1.0 0.00 0.00 0.00 70 1017.6
20260506160028 78 191 1.0 3.0 0.00 0.00 0.00 69 1017.5
20260506155527 77 194 1.0 3.0 0.00 0.00 0.00 68 1017.7
20260506153703 78 183 2.0 3.0 0.00 0.00 0.00 64 1017.6
20260506153201 79 215 4.0 5.0 0.00 0.00 0.00 64 1017.4
20260506152658 78 279 1.0 1.0 0.00 0.00 0.00 63 1017.6
20260506152155 79 228 2.0 3.0 0.00 0.00 0.00 62 1017.8
20260506151654 78 226 3.0 4.0 0.00 0.00 0.00 62 1017.6
20260506151150 78 193 2.0 3.0 0.00 0.00 0.00 65 1017.5
20260506150647 78 171 2.0 3.0 0.00 0.00 0.00 66 1017.6
20260506150144 77 183 2.0 3.0 0.00 0.00 0.00 68 1017.4
20260506145641 77 166 3.0 4.0 0.00 0.00 0.00 69 1017.4
20260506145137 77 204 2.0 4.0 0.00 0.00 0.00 69 1017.4
20260506144636 77 179 3.0 3.0 0.00 0.00 0.00 69 1017.5
20260506144132 77 186 4.0 5.0 0.00 0.00 0.00 68 1017.5
20260506143630 77 175 2.0 3.0 0.00 0.00 0.00 70 1017.3
20260506143127 76 186 2.0 3.0 0.00 0.00 0.00 72 1016.9
20260506142626 76 186 4.0 4.0 0.00 0.00 0.00 72 1017.2
20260506142123 76 185 1.0 1.0 0.00 0.00 0.00 74 1017.0
20260506141621 76 193 1.0 1.0 0.00 0.00 0.00 75 1017.0
20260506141119 75 213 1.0 1.0 0.00 0.00 0.00 76 1017.3
20260506140616 75 166 3.0 5.0 0.00 0.00 0.00 75 1017.3
20260506140113 75 186 1.0 1.0 0.00 0.00 0.00 76 1017.3
20260506135610 75 207 1.0 1.0 0.00 0.00 0.00 75 1017.1
20260506135106 75 168 3.0 4.0 0.00 0.00 0.00 77 1017.1
20260506134603 74 169 0.0 1.0 0.00 0.00 0.00 77 1017.0
20260506134058 74 193 2.0 3.0 0.00 0.00 0.00 76 1017.1
20260506133556 74 165 1.0 1.0 0.00 0.00 0.00 77 1016.9
20260506133053 74 183 1.0 1.0 0.00 0.00 0.00 77 1017.3
20260506132550 74 158 1.0 1.0 0.00 0.00 0.00 77 1017.2
20260506132047 74 191 1.0 3.0 0.00 0.00 0.00 77 1017.0
20260506131544 73 161 1.0 1.0 0.00 0.00 0.00 78 1017.1
20260506131041 73 137 1.0 1.0 0.00 0.00 0.00 78 1016.6
20260506130538 73 187 3.0 3.0 0.00 0.00 0.00 79 1016.9
20260506130035 73 180 0.0 1.0 0.00 0.00 0.00 80 1017.1
20260506125533 73 194 0.0 0.0 0.00 0.00 0.00 81 1016.8
20260506125031 72 153 3.0 4.0 0.00 0.00 0.00 82 1017.0
20260506124529 72 192 3.0 4.0 0.00 0.00 0.00 82 1016.7
20260506124026 72 159 1.0 3.0 0.00 0.00 0.00 82 1016.6
20260506123524 72 200 0.0 1.0 0.00 0.00 0.00 83 1016.7
20260506123022 71 194 2.0 3.0 0.00 0.00 0.00 84 1016.8
20260506122518 71 211 1.0 3.0 0.00 0.00 0.00 85 1016.8
20260506122016 70 173 0.0 1.0 0.00 0.00 0.00 86 1016.7
20260506121514 70 191 0.0 1.0 0.00 0.00 0.00 87 1016.6
20260506121010 69 207 1.0 1.0 0.00 0.00 0.00 88 1016.7
20260506120508 69 213 1.0 1.0 0.00 0.00 0.00 90 1017.0
20260506120005 68 183 0.0 0.0 0.00 0.00 0.00 92 1016.5
20260506115503 67 183 0.0 0.0 0.00 0.00 0.00 94 1016.6
20260506115001 67 183 0.0 0.0 0.00 0.00 0.00 95 1016.6
20260506114458 66 182 0.0 0.0 0.00 0.00 0.00 96 1016.6
20260506113956 65 182 0.0 0.0 0.00 0.00 0.00 97 1016.5
20260506113454 65 181 0.0 0.0 0.00 0.00 0.00 97 1016.4
20260506112950 64 181 0.0 0.0 0.00 0.00 0.00 97 1016.5
20260506112448 64 180 0.0 0.0 0.00 0.00 0.00 97 1016.3
20260506111945 64 180 0.0 0.0 0.00 0.00 0.00 97 1016.1
20260506111443 64 180 0.0 0.0 0.00 0.00 0.00 97 1016.5
20260506110939 63 179 0.0 0.0 0.00 0.00 0.00 97 1016.3
20260506110438 63 179 0.0 0.0 0.00 0.00 0.00 97 1016.4
20260506105934 63 179 0.0 0.0 0.00 0.00 0.00 97 1016.3
20260506105430 63 179 0.0 0.0 0.00 0.00 0.00 97 1016.4
20260506104927 63 178 0.0 0.0 0.00 0.00 0.00 97 1016.4
20260506104425 63 178 0.0 0.0 0.00 0.00 0.00 97 1016.3
20260506103924 63 199 0.0 0.0 0.00 0.00 0.00 97 1016.2
20260506103420 63 199 0.0 0.0 0.00 0.00 0.00 97 1016.2
20260506102917 63 199 0.0 0.0 0.00 0.00 0.00 97 1016.2
20260506102416 63 199 0.0 0.0 0.00 0.00 0.00 97 1015.9
20260506101913 63 199 0.0 0.0 0.00 0.00 0.00 96 1016.2
20260506101409 63 199 0.0 0.0 0.00 0.00 0.00 96 1016.1
20260506100906 63 200 0.0 0.0 0.00 0.00 0.00 96 1016.1
20260506100404 63 201 0.0 0.0 0.00 0.00 0.00 96 1016.2
20260506095902 63 201 0.0 0.0 0.00 0.00 0.00 95 1015.8
20260506095400 64 201 0.0 0.0 0.00 0.00 0.00 95 1015.8
20260506094856 64 201 0.0 0.0 0.00 0.00 0.00 95 1016.1
20260506094355 64 201 0.0 0.0 0.00 0.00 0.00 95 1016.0
20260506093852 64 201 0.0 0.0 0.00 0.00 0.00 95 1015.9
20260506093350 64 201 0.0 0.0 0.00 0.00 0.00 95 1016.0
20260506092847 64 201 0.0 0.0 0.00 0.00 0.00 95 1016.1
20260506092345 64 201 0.0 0.0 0.00 0.00 0.00 95 1016.0
20260506091842 64 201 0.0 0.0 0.00 0.00 0.00 94 1016.0
20260506091340 64 201 0.0 0.0 0.00 0.00 0.00 94 1016.2
20260506090837 64 201 0.0 0.0 0.00 0.00 0.00 94 1016.0
20260506090335 65 201 0.0 0.0 0.00 0.00 0.00 94 1016.0
20260506085831 65 201 0.0 0.0 0.00 0.00 0.00 93 1016.3
20260506085327 65 201 0.0 0.0 0.00 0.00 0.00 93 1016.1
20260506084824 65 202 0.0 0.0 0.00 0.00 0.00 93 1016.3
20260506084320 65 202 0.0 0.0 0.00 0.00 0.00 93 1016.5
20260506083817 65 202 0.0 0.0 0.00 0.00 0.00 93 1016.3
20260506083315 65 202 0.0 0.0 0.00 0.00 0.00 93 1016.2
20260506082812 65 202 0.0 0.0 0.00 0.00 0.00 92 1016.2
20260506082308 65 202 0.0 0.0 0.00 0.00 0.00 92 1016.4
20260506081805 65 202 0.0 0.0 0.00 0.00 0.00 92 1016.1
20260506081303 66 202 0.0 0.0 0.00 0.00 0.00 92 1016.2
20260506080800 66 202 0.0 0.0 0.00 0.00 0.00 92 1016.0
20260506080256 66 202 0.0 0.0 0.00 0.00 0.00 92 1016.3
20260506073240 66 202 0.0 0.0 0.00 0.00 0.00 91 1015.8
20260506072737 66 202 0.0 0.0 0.00 0.00 0.00 91 1015.6
20260506072235 66 203 0.0 0.0 0.00 0.00 0.00 91 1015.8
20260506071733 66 203 0.0 1.0 0.00 0.00 0.00 91 1015.9
20260506071230 66 203 0.0 0.0 0.00 0.00 0.00 90 1015.7
20260506070727 66 203 0.0 0.0 0.00 0.00 0.00 90 1015.8
20260506070224 66 203 0.0 0.0 0.00 0.00 0.00 90 1015.7
20260506062201 66 181 0.0 0.0 0.00 0.00 0.00 89 1016.2
20260506061656 66 181 0.0 0.0 0.00 0.00 0.00 89 1016.1
20260506061154 66 181 0.0 0.0 0.00 0.00 0.00 89 1016.1
20260506060653 66 181 0.0 0.0 0.00 0.00 0.00 89 1016.2
20260506060149 66 181 0.0 0.0 0.00 0.00 0.00 88 1016.0
20260506051121 65 182 0.0 0.0 0.00 0.00 0.00 88 1016.8
20260506050620 65 182 0.0 0.0 0.00 0.00 0.00 88 1016.8
20260506050116 65 182 0.0 0.0 0.00 0.00 0.00 87 1016.8
20260506045110 65 182 0.0 0.0 0.00 0.00 0.00 87 1017.0
20260506044608 65 182 0.0 0.0 0.00 0.00 0.00 87 1017.0
20260506044104 65 182 0.0 0.0 0.00 0.00 0.00 87 1017.3
20260506043601 65 182 0.0 0.0 0.00 0.00 0.00 87 1017.2
20260506043100 65 182 0.0 0.0 0.00 0.00 0.00 87 1017.1
20260506042558 65 183 0.0 0.0 0.00 0.00 0.00 87 1017.2
20260506042056 65 183 0.0 0.0 0.00 0.00 0.00 87 1017.3
20260506041554 65 183 0.0 0.0 0.00 0.00 0.00 86 1017.2
20260506041051 65 183 0.0 0.0 0.00 0.00 0.00 86 1017.1
20260506040549 65 183 0.0 0.0 0.00 0.00 0.00 86 1017.1
20260506040044 65 183 0.0 0.0 0.00 0.00 0.00 85 1017.2
20260506035542 65 183 0.0 0.0 0.00 0.00 0.00 84 1017.1
20260506035038 65 183 0.0 0.0 0.00 0.00 0.00 84 1017.0
20260506034536 65 183 0.0 0.0 0.00 0.00 0.00 84 1017.0
20260506034032 66 183 0.0 0.0 0.00 0.00 0.00 83 1016.9
20260506033530 65 183 1.0 1.0 0.00 0.00 0.00 84 1016.8
20260506033027 65 183 0.0 0.0 0.00 0.00 0.00 84 1017.3
20260506032524 65 183 0.0 0.0 0.00 0.00 0.00 84 1016.8
20260506032021 65 183 0.0 0.0 0.00 0.00 0.00 83 1017.2
20260506031519 65 183 0.0 1.0 0.00 0.00 0.00 84 1017.1
20260506031015 65 183 0.0 1.0 0.00 0.00 0.00 84 1017.0
20260506030513 65 183 0.0 0.0 0.00 0.00 0.00 84 1016.9
20260506030010 65 183 0.0 1.0 0.00 0.00 0.00 84 1017.1
20260506025507 65 183 1.0 1.0 0.00 0.00 0.00 84 1017.1
20260506025003 65 183 0.0 0.0 0.00 0.00 0.00 84 1017.3
20260506024500 65 183 0.0 0.0 0.00 0.00 0.00 83 1017.4
20260506023956 65 183 0.0 0.0 0.00 0.00 0.00 83 1017.4
20260506023453 65 183 0.0 0.0 0.00 0.00 0.00 82 1017.5
20260506022950 65 183 0.0 0.0 0.00 0.00 0.00 82 1017.5
20260506022448 65 183 0.0 0.0 0.00 0.00 0.00 82 1017.6
20260506021945 65 183 0.0 0.0 0.00 0.00 0.00 82 1017.4
20260506021442 65 183 0.0 0.0 0.00 0.00 0.00 81 1017.5
20260506020939 66 183 0.0 0.0 0.00 0.00 0.00 81 1017.3
20260506020437 66 183 0.0 0.0 0.00 0.00 0.00 80 1017.4
20260506015934 66 183 0.0 0.0 0.00 0.00 0.00 80 1017.2
20260506015432 66 183 0.0 0.0 0.00 0.00 0.00 79 1017.2
20260506014928 66 183 0.0 0.0 0.00 0.00 0.00 79 1017.0
20260506014425 66 183 0.0 1.0 0.00 0.00 0.00 79 1017.0
20260506013922 66 183 0.0 0.0 0.00 0.00 0.00 79 1017.1
20260506013420 66 183 0.0 0.0 0.00 0.00 0.00 79 1016.8
20260506012916 66 183 0.0 0.0 0.00 0.00 0.00 79 1017.0
20260506012412 66 183 0.0 0.0 0.00 0.00 0.00 79 1016.9
20260506011910 66 183 0.0 0.0 0.00 0.00 0.00 78 1017.1
20260506011407 67 183 0.0 0.0 0.00 0.00 0.00 78 1017.3
20260506010904 67 183 0.0 0.0 0.00 0.00 0.00 77 1017.0
20260506010402 67 183 0.0 0.0 0.00 0.00 0.00 77 1016.9
20260506005858 67 183 0.0 0.0 0.00 0.00 0.00 77 1016.9
20260506005356 67 183 1.0 1.0 0.00 0.00 0.00 76 1017.0
20260506004851 67 183 0.0 0.0 0.00 0.00 0.00 76 1016.9
20260506004349 68 183 0.0 0.0 0.00 0.00 0.00 75 1016.9
20260506003845 68 183 0.0 0.0 0.00 0.00 0.00 75 1017.1